Location: Winnipeg
(49.8830°N, 97.1670°W)
Time: 04:17:53
(UTC-05:00)

Envisat - Pass Details

Date: 12 March 2024
Orbit: 762 x 764 km, 98.3° (Epoch: 21 April)

Event Time Altitude Azimuth Distance (km) Brightness Sun altitude
Rises 06:45:11 0° 3° (N) 3,243 6.4 -10.8°
Reaches altitude 10° 06:48:14 10° 343° (NNW) 2,311 5.4 -10.3°
Maximum altitude 06:51:24 17° 305° (NW) 1,872 4.6 -9.8°
Enters shadow 06:54:02 12° 271° (W) 2,179 4.7 -9.4°
